Orbital Elements at Epoch 2459200.5 (2020-Dec-17.0) TDB
Reference: JPL 12 (heliocentric ecliptic J2000)
Element | Value | Uncertainty (1-sigma) | Units |
e | .172326175674255 | 1.3086e-07 | |
a | 2.6352326728224 | 3.9322e-08 | au |
q | 2.18111310430307 | 3.4024e-07 | au |
i | 32.99259978558266 | 1.4044e-05 | deg |
node | 324.8476283833281 | 1.363e-05 | deg |
peri | 11.59300441070709 | 3.0388e-05 | deg |
M | 320.2467514932468 | 3.9173e-05 | deg |
tp | 2459373.042862739816 (2021-Jun-07.54286274) | 0.00017285 | TDB |
period | 1562.524646904807 4.28 | 3.4973e-05 9.575e-08 | d yr |
n | .2303963657233319 | 5.1568e-09 | deg/d |
Q | 3.08935224134173 | 4.6098e-08 | au |
|
| | Orbit Determination Parameters
Additional Information
|